Location: Brookfield Center
(41.2406°N, 80.5579°W)
Time: 16:48:16
(UTC+00:00)

Cosmos 962 Rocket - Pass Details

Date: 18 January 2020
Orbit: 951 x 999 km, 83.0° (Epoch: 20 February)

Event Time Altitude Azimuth Distance (km) Brightness Sun altitude
Rises 11:14:43 0° 351° (N) 3,678 7.3 -16.6°
Reaches altitude 10° 11:17:14 10° 350° (N) 2,734 6.6 -16.2°
Maximum altitude 11:23:29 78° 266° (W) 1,011 4.4 -15.0°
Drops below altitude 10° 11:29:47 10° 180° (S) 2,746 7.0 -13.9°
Sets 11:32:19 0° 179° (S) 3,695 7.8 -13.4°
